Printer-friendly version

IAU Minor Planet Center

Minor Planet Center

MPEC 2003-S38 : 2000 GF2 = 2003 SO84

The following Minor Planet Electronic Circular may be linked-to from your own Web pages, but must not otherwise be redistributed electronically.


Read MPEC 2003-S37 Read MPEC 2003-S39


M.P.E.C. 2003-S38                                Issued 2003 Sept. 21, 23:18 UT

     The Minor Planet Electronic Circulars contain information on unusual
         minor planets and routine data on comets.  They are published
   on behalf of Commission 20 of the International Astronomical Union by the
          Minor Planet Center, Smithsonian Astrophysical Observatory,
                          Cambridge, MA 02138, U.S.A.

         Supported in part by the Steven and Michele Kirsch Foundation
             Prepared using the Tamkin Foundation Computer Network

                              MPC@CFA.HARVARD.EDU
          URL http://cfa-www.harvard.edu/iau/mpc.html  ISSN 1523-6714

                             2000 GF2 = 2003 SO84

                      Revision to MPEC 2000-G28, 2003-S37

Additional Observations:
     K03S84O  C2003 09 21.07314 02 43 24.93 +04 48 39.8          16.1 R      170
     K03S84O  C2003 09 21.07408 02 43 24.40 +04 48 30.8          16.1 R      170
     K03S84O  C2003 09 21.07583 02 43 23.40 +04 48 14.1          16.0 R      170
     K03S84O  C2003 09 21.07798 02 43 22.17 +04 47 53.3          16.1 R      170
     K03S84O  C2003 09 21.07933 02 43 21.39 +04 47 40.3          16.1 R      170
     K03S84O  C2003 09 21.30995 02 41 24.06 +04 11 21.3          16.5        704
     K03S84O  C2003 09 21.32200 02 41 17.43 +04 09 29.0          16.7        704
     K03S84O  C2003 09 21.33426 02 41 10.64 +04 07 34.8          16.6        704
     K03S84O  C2003 09 21.34653 02 41 03.85 +04 05 40.8          16.4        704
     K03S84O  C2003 09 21.35870 02 40 57.09 +04 03 47.6          16.5        704

Observer details:
170 Observatorio de Begues.  Observer J. Manteca.  0.31-m f/6.3
    Schmidt-Cassegrain + CCD.
704 Lincoln Laboratory ETS, New Mexico.  Observers M. Blythe, F. Shelly,
    M. Bezpalko, R. Huber, L. Manguso, D. Torres, R. Kracke, M. McCleary,
    H. Stange.  Measurers J. Stuart, R. Sayer, J. Evans, J. Kommers.  1.0-m
    f/2.15 reflector + CCD.

Orbital elements:
2000 GF2 = 2003 SO84                                                 PHA 0.016
Epoch 2003 Dec. 27.0 TT = JDT 2453000.5                 MPC
M  99.13648              (2000.0)            P               Q
n   0.63498974     Peri.  107.95139     +0.24459727     +0.96955985
a   1.3405764      Node   176.15354     -0.94084156     +0.24011876
e   0.3774555      Incl.    9.62733     -0.23449803     +0.04792356
P   1.55           H   20.4           G   0.15           U   2
Residuals in seconds of arc
000403 704  0.3+  0.1-    030920 611  0.1+  0.5+    030921 106  0.2+  0.5-
000403 704  0.1+  0.4+    030920 611  0.1-  0.1+    030921 106  0.4+  0.4-
000403 704  0.7+  0.0     030920 611  0.2-  0.1+    030921 196  0.3+  0.6+
000403 704  0.3+  0.9-    030920 611  0.1-  0.1+    030921 196  0.3-  0.0
000404 704  0.1+  0.5+    030920 611  0.1+  0.2+    030921 196  0.8-  0.4+
000404 704  0.1-  0.4-    030920 048 (7.6-  6.6+)   030921 196  0.3-  0.2-
000404 704  0.1+  0.2+    030920 048 (7.3-  4.9+)   030921 J95  0.6+  0.2-
000404 704  0.2+  0.2+    030920 048 (2.3-  1.4+)   030921 J95  0.0   0.2-
000404 704  0.0   0.3-    030920 048  0.9-  1.6+    030921 J95  0.2+  0.4-
000404 704  0.2+  0.8-    030920 048  1.7-  1.5+    030921 J95  0.1+  0.4-
000404 704  0.0   0.8+    030920 620  0.2-  0.1+    030921 J95  0.2+  0.2-
000404 704  0.7-  0.9+    030920 620  0.2+  0.2+    030921 196  0.3+  0.4-
000404 704  0.4-  0.4+    030920 620  0.2+  0.2-    030921 941  0.1+  0.3-
000404 704  0.3-  0.2+    030920 J87  0.4+  0.6-    030921 941  0.2+  0.3-
000405 557  0.3-  0.6+    030920 J87  0.0   0.6-    030921 941  0.1+  0.4-
000405 557  0.7-  0.1+    030920 J87  0.0   0.5-    030921 941  0.2+  0.4-
000405 557  0.4-  0.3-    030920 J87  0.2+  0.5-    030921 941  0.1-  0.5-
000405 860  1.3+  0.4+    030920 166 (2.1-  1.7-)   030921 170  0.1+  0.6-
000405 860  1.7+  0.9-    030920 166  0.8+  0.3+    030921 170  0.2+  0.5-
000405 860  1.2+  0.8+    030920 166  1.0-  0.4+    030921 170  0.3+  0.3-
000405 860  0.2+  0.6-    030920 166  0.3-  0.3+    030921 170  0.3+  0.3-
000405 704  0.1-  0.1+    030920 166  0.1+  0.2+    030921 170  0.1+  0.3-
000405 854  0.4-  1.9-    030920 166  1.0-  0.2+    030921 232  1.0-  0.8-
000405 854  0.1-  1.4-    030920 A50  0.2+  0.6+    030921 232  0.2-  0.9-
000405 854  0.9-  1.4-    030920 166  0.7-  0.3-    030921 232  0.9-  1.1-
000405 704  0.3-  1.1-    030920 166  0.7+  0.2-    030921 108  0.2+  1.1+
000405 704  0.3-  0.1-    030920 A50  0.6+  0.8+    030921 232  0.9-  0.7-
000405 704  0.0   0.2-    030920 166  0.8-  0.0     030921 108  0.3+  0.7+
000405 688  0.4-  0.2-    030920 166  0.6-  0.2+    030921 108  1.3+  0.7-
000405 688  0.3-  0.1-    030920 A50  0.5+  0.8+    030921 232  1.4-  0.9-
000405 611  0.1-  0.1+    030920 166  0.6-  1.0-    030921 196  0.3-  0.2+
000407 860  0.8-  0.2+    030920 166  0.6+  0.3+    030921 196  0.6-  0.4+
000407 860  0.6-  0.6-    030920 166  0.4-  0.8-    030921 557  0.1+  0.3-
000407 860  1.8+  0.4+    030920 166  0.1-  0.5+    030921 557  0.0   0.3-
000407 860  1.0+  0.7+    030920 166  0.1+  0.2+    030921 557  0.2+  0.3-
000407 587  0.4+  0.3+    030920 166  0.6-  0.4-    030921 557  0.2+  0.5-
000407 587  0.5-  0.3+    030920 A50  0.0   0.4+    030921 557  0.1+  0.3-
000408 739 (2.8+  2.3+)   030920 A50  0.1+  0.2+    030921 557  0.2+  0.4-
000408 739 (2.1+  1.2+)   030920 A50  0.1-  0.3+    030921 557  0.2+  0.3-
000408 739  0.4+  0.2-    030920 A50  0.2+  0.5+    030921 557  0.2+  0.4-
000408 402  0.4+  0.4+    030920 A50  0.2+  0.4+    030921 196  0.5-  0.0
000408 402  0.2-  0.4+    030920 108  0.3+  0.9+    030921 599  0.5-  0.3-
000408 402  0.1-  0.0     030920 A50  0.3-  0.4+    030921 599  0.0   0.2-
000409 046  0.5-  0.4+    030920 108  0.9-  1.7-    030921 599  0.4-  0.2-
000409 046  0.1-  0.3+    030920 108  0.2+  0.9+    030921 G90  0.2+  0.1+
000409 046  0.3-  0.3+    030920 118  0.2-  0.3+    030921 G90  0.3+  0.3+
000409 046  0.4+  0.7+    030920 118  0.4-  0.1+    030921 G90  0.4+  0.4+
000409 046  0.5+  0.1-    030920 151  0.5-  0.8-    030921 704  0.2-  0.5+
000411 402  0.9-  1.0-    030920 118  0.1+  0.7+    030921 333  0.3-  0.2-
000411 402  0.4+  0.6+    030920 151  0.3-  0.9-    030921 333  0.2-  0.3-
000411 402  1.1-  1.7-    030920 151  0.5-  1.0-    030921 333  0.1+  0.5-
000414 118  0.4+  0.3+    030920 151  0.2-  0.4-    030921 333  1.0-  0.3-
000414 118  0.1-  0.6+    030920 118  0.3+  0.6+    030921 333  0.3-  0.2-
000414 540  0.2-  0.5+    030920 151  0.4+  0.4-    030921 333  0.1-  0.2-
000414 540  0.5+  0.8+    030920 151  0.1+  0.5-    030921 333  0.0   0.0
000414 540  0.8-  0.1-    030920 151  0.3+  0.4-    030921 333  0.7-  0.7-
000414 540  0.4-  0.3-    030920 151  0.2+  0.4-    030921 704  0.0   0.5+
000415 118  0.6+  0.5+    030920 151  0.1+  0.2-    030921 704  0.2-  0.4+
000415 118  0.1-  0.5+    030920 151  0.1+  0.4-    030921 704  0.2-  0.5+
030920 704  0.2-  0.0     030920 246  0.2+  0.7+    030921 704  0.5-  0.3+
030920 704  0.1-  0.0     030921 246  0.1-  0.4+    030921 854  0.0   0.5+
030920 704  0.3-  0.0     030921 246  0.9+  1.3+    030921 854  0.6-  0.1+
030920 704  0.1-  0.1-    030921 246  0.4+  0.8+    030921 854  0.1+  0.4+
030920 608  0.0   0.5-    030921 108  0.1+  0.4+    030921 699  0.8+  0.9+
030920 704  0.2-  0.2-    030921 246  0.1+  0.7+    030921 699  0.9+  1.1+
030920 608  0.3-  0.7-    030921 196  0.2+  0.6+    030921 699  1.1+  1.0+
030920 608  0.0   0.8-    030921 108  0.2+  0.2-    030921 699  1.0+  1.0+
030920 699  0.5+  0.4+    030921 108  0.4+  0.5-    030921 E14  0.7+  0.4-
030920 699  0.9+  0.6+    030921 196  0.3-  0.2+    030921 E14  0.3+  0.1-
030920 699  1.1+  0.5+    030921 106  0.1+  0.5-    030921 E14  0.0   0.9+
030920 699  0.9+  0.6+    030921 106  0.2+  0.6-

Ephemeris:
2000 GF2                 a,e,i = 1.34, 0.38, 10                  q = 0.8346
Date    TT    R. A. (2000) Decl.     Delta      r     Elong.  Phase     V
2003 09 18    03 17.90   +15 05.7    0.053    1.035   123.5    54.1    16.1
2003 09 19    03 04.81   +11 17.0    0.057    1.041   128.4    49.2    16.1
2003 09 20    02 53.65   +07 56.6    0.061    1.047   132.7    44.9    16.1
2003 09 21    02 44.05   +05 02.0    0.066    1.053   136.4    41.2    16.2
2003 09 22    02 35.70   +02 29.9    0.070    1.059   139.6    37.9    16.3
2003 09 23    02 28.38   +00 17.4    0.075    1.064   142.5    35.1    16.4
2003 09 24    02 21.90   -01 38.4    0.081    1.070   144.9    32.6    16.5
2003 09 25    02 16.13   -03 19.8    0.086    1.076   147.1    30.4    16.5
2003 09 26    02 10.95   -04 48.9    0.092    1.082   149.0    28.5    16.6
2003 09 27    02 06.27   -06 07.5    0.097    1.088   150.7    26.8    16.7
2003 09 28    02 02.02   -07 17.0    0.103    1.094   152.1    25.4    16.8
2003 09 29    01 58.14   -08 18.6    0.109    1.100   153.4    24.1    16.9
2003 09 30    01 54.59   -09 13.3    0.115    1.106   154.4    23.0    17.0
2003 10 01    01 51.31   -10 02.1    0.121    1.112   155.3    22.1    17.1
2003 10 02    01 48.29   -10 45.6    0.127    1.118   156.1    21.3    17.2
2003 10 03    01 45.49   -11 24.4    0.133    1.124   156.7    20.6    17.3
2003 10 04    01 42.89   -11 59.0    0.140    1.130   157.2    20.0    17.4
2003 10 05    01 40.47   -12 30.0    0.146    1.137   157.6    19.6    17.5
2003 10 06    01 38.21   -12 57.7    0.153    1.143   157.8    19.3    17.6
2003 10 07    01 36.09   -13 22.3    0.159    1.149   158.0    19.0    17.7

2003 10 08    01 34.12   -13 44.3    0.166    1.155   158.1    18.9    17.8
2003 10 18    01 19.91   -15 38.7    0.237    1.215   154.9    20.4    18.7
2003 10 28    01 12.80   -15 36.6    0.316    1.274   148.5    24.1    19.6
2003 11 07    01 10.85   -14 32.0    0.405    1.332   141.3    27.7    20.3
2003 11 17    01 12.86   -12 52.7    0.503    1.387   134.2    30.7    20.9
2003 11 27    01 18.02   -10 53.3    0.609    1.440   127.2    33.1    21.5
2003 12 07    01 25.77   -08 42.6    0.723    1.489   120.6    34.7    22.0

     The object passed 0.042 AU from the earth on 2003 Sept. 12.75 UT.

Brian G. Marsden             (C) Copyright 2003 MPC           M.P.E.C. 2003-S38

Read MPEC 2003-S37 Read MPEC 2003-S39


Our Web policy. Index to the CBAT/MPC/ICQ pages.


Valid HTML 4.01!